Wetbulb
58.52 58.47 58.78 58.87 58.72 58.46 58.45 58.56 58.56 58.65 58.43 58.70 59.08 59.21 58.91 59.15 58.56 56.30 54.07 60.47 59.13 64.50 63.39 50.96 50.77 50.56 49.90 48.19 45.40 44.57 39.36 36.79 39.22 41.19 44.52 48.19 48.31 52.42 55.54 59.29 60.83 62.85 62.56 63.41 65.74
58.09 58.02 58.19 58.16 58.39 58.07 57.94 58.17 58.34 58.39 58.67 59.05 58.71 58.46 58.75 59.00 54.60 53.78 61.66 63.46 64.28 65.49 48.74 48.05 48.93 52.32 47.68 44.07 45.05 42.34 37.17 39.90 43.59 43.72 44.16 47.47 47.60 50.00 52.16 52.55 59.69 62.93 65.93 65.87 65.79
57.38 57.51 57.87 57.45 57.41 57.58 57.59 57.73 57.92 58.26 58.60 58.67 58.23 58.36 59.04 58.49 53.04 55.58 66.98 64.56 64.04 62.46 52.45 52.45 51.89 50.20 42.19 42.06 43.83 41.25 40.64 42.93 45.46 46.43 46.61 45.99 48.59 49.70 50.50 49.00 52.39 62.42 64.99 65.73 65.99
56.91 57.09 57.17 56.86 57.00 57.40 57.35 57.60 57.59 57.65 57.75 57.99 57.92 58.89 59.64 55.76 43.99 51.99 66.98 67.20 66.45 56.90 51.58 51.26 49.64 45.79 41.47 42.03 44.23 41.66 45.32 45.06 46.46 46.84 45.25 45.60 47.28 48.28 48.99 50.36 54.44 63.38 67.35 66.88 64.95
56.35 56.41 56.46 56.43 56.73 56.88 56.80 57.01 57.30 57.42 57.11 57.54 58.28 59.86 55.46 51.06 53.70 57.69 68.66 67.60 58.31 51.65 49.53 48.71 46.09 43.28 44.11 43.89 46.56 42.60 45.91 47.68 47.99 46.87 44.81 47.42 47.39 46.27 48.37 51.85 54.12 55.06 66.91 65.80 65.13
56.49 56.52 56.40 56.21 56.48 56.50 56.40 56.31 56.19 56.43 56.94 57.64 59.07 59.99 55.78 50.17 57.34 58.21 58.65 56.83 53.70 50.86 51.49 49.76 49.27 48.17 44.38 44.56 43.08 45.68 46.01 47.13 47.22 47.02 45.15 45.90 46.80 47.47 50.60 57.11 63.59 64.58 63.85 60.84 64.28
56.18 56.08 55.90 56.03 56.21 56.36 56.30 55.93 55.73 56.25 57.02 57.97 59.85 58.90 54.55 52.29 56.66 56.29 55.91 55.10 55.36 55.77 53.55 52.84 51.00 49.19 46.83 46.37 46.73 47.01 44.48 45.25 47.00 46.04 45.90 48.06 52.39 54.02 57.65 64.41 64.10 64.84 65.48 65.76 63.19
56.02 55.59 55.62 55.64 55.78 56.17 56.26 55.92 55.75 56.66 57.68 58.50 60.96 55.54 51.36 60.10 56.56 54.75 54.75 55.07 54.95 54.23 54.40 54.54 51.05 47.02 45.39 46.67 47.84 44.90 41.62 39.32 45.42 47.44 49.27 52.55 48.08 56.42 61.95 61.02 59.53 61.99 64.07 63.48 64.06
55.78 55.22 55.16 55.27 55.62 55.74 55.48 54.93 56.48 58.29 58.13 60.33 55.75 53.63 53.17 61.56 53.29 55.32 54.38 53.93 55.20 55.36 53.56 56.45 49.48 46.21 46.82 42.47 40.94 41.23 38.90 39.94 44.13 49.69 52.12 52.11 47.91 55.91 59.02 59.09 58.52 59.29 58.48 60.17 63.07
55.69 54.90 54.63 54.77 55.16 55.00 54.41 54.92 56.62 57.37 57.74 59.99 59.60 52.15 55.31 56.02 55.64 56.64 55.78 55.38 54.69 52.37 51.19 50.03 46.81 44.05 42.45 41.31 37.42 39.97 40.69 41.62 42.95 48.79 52.68 50.75 50.32 53.90 55.92 57.91 58.37 59.63 60.21 58.81 62.94
55.69 54.78 54.35 54.45 54.69 54.19 52.15 51.12 48.30 48.97 50.97 51.40 52.77 54.38 56.39 57.51 57.90 54.99 55.60 54.40 53.65 49.77 45.19 47.84 44.04 41.34 44.33 43.98 44.92 44.56 43.69 43.30 45.79 52.89 51.13 49.56 50.57 52.39 55.41 56.82 56.58 58.03 59.16 60.51 61.17
55.25 54.86 54.59 54.30 54.16 53.86 51.19 49.09 49.50 50.53 46.06 52.09 52.32 53.07 56.22 57.40 54.48 56.12 55.06 50.53 50.52 45.35 48.34 45.05 42.69 47.74 47.90 49.10 47.84 47.21 44.44 42.76 45.62 53.16 51.64 50.29 49.66 53.38 54.85 57.55 55.29 56.72 58.67 61.23 64.56
54.48 54.20 54.26 54.02 53.32 52.92 50.68 52.06 52.60 53.33 44.65 51.39 54.47 53.29 51.25 53.71 53.26 54.82 52.66 50.63 48.20 45.60 45.13 43.31 46.96 50.36 49.78 48.15 46.89 45.32 42.71 43.02 43.67 48.77 52.23 49.78 46.12 49.79 55.14 57.69 59.11 60.50 61.30 63.64 63.85
54.28 54.04 53.91 53.24 50.70 50.89 51.54 55.24 54.92 53.68 43.73 50.49 49.65 50.38 52.11 52.79 52.02 55.90 54.40 52.22 49.09 46.46 47.01 45.64 48.94 49.89 48.74 48.93 47.09 42.45 47.52 47.76 46.58 43.51 39.25 47.04 37.47 46.74 52.19 55.20 57.52 59.62 59.81 60.62 62.66
54.12 54.22 53.77 53.16 47.89 46.96 53.92 53.66 53.89 53.05 38.99 51.86 47.98 52.56 52.11 49.98 52.37 53.04 55.07 52.81 47.77 48.01 46.37 46.32 48.05 47.49 46.65 47.28 48.31 45.33 49.34 46.86 47.42 42.57 43.77 46.21 42.93 46.13 50.77 51.17 54.34 57.13 58.62 59.35 60.82
54.06 54.10 53.38 50.46 47.43 50.50 51.76 52.30 50.85 44.32 40.38 48.31 50.28 48.18 46.70 50.69 51.93 52.31 53.55 52.82 51.59 48.21 48.35 47.69 49.71 48.31 47.92 50.29 49.25 49.67 48.56 46.71 45.73 42.28 38.10 43.77 42.07 41.03 46.80 50.66 55.47 57.38 57.79 58.62 58.58
53.97 53.60 51.86 51.48 45.36 50.07 51.64 49.84 40.69 39.90 52.39 47.97 47.46 48.00 46.54 47.30 48.97 49.62 49.34 46.23 44.24 41.59 44.21 49.71 46.78 48.57 51.80 47.09 48.51 48.08 42.73 36.71 36.25 36.88 36.74 45.22 44.22 44.40 51.56 55.15 55.72 54.58 55.97 56.95 57.34
52.52 51.64 50.00 51.19 48.95 50.88 50.21 46.02 38.06 48.73 49.66 52.29 48.99 47.48 46.72 48.51 48.00 49.43 48.01 46.06 48.78 47.18 45.06 43.37 41.69 47.94 52.03 46.86 43.40 45.58 42.93 37.68 32.21 33.72 36.84 46.45 41.49 45.58 54.26 55.81 57.55 54.76 53.20 55.61 55.75
50.69 47.59 49.15 52.61 52.23 50.39 48.11 39.41 42.72 48.39 51.76 51.27 48.63 44.53 44.30 48.85 48.31 49.88 48.33 47.03 48.53 48.08 43.60 43.32 45.49 52.27 52.16 50.42 48.25 46.30 42.31 44.38 39.62 38.97 37.92 40.70 45.07 50.28 53.07 53.08 54.15 52.77 53.04 51.69 53.15
46.60 46.34 48.60 54.17 54.34 50.90 44.93 41.71 46.88 52.81 53.01 52.24 46.47 48.21 43.49 46.17 45.90 46.15 47.73 50.49 50.77 52.29 49.65 46.88 43.22 51.36 51.74 51.50 50.48 47.17 47.64 40.72 39.11 32.85 31.22 38.32 41.40 41.89 48.68 50.37 50.15 50.03 49.82 51.03 51.91
45.80 47.44 53.95 54.98 53.34 47.46 39.93 42.71 49.19 53.08 53.62 50.75 48.56 48.20 48.58 46.19 47.62 47.35 48.02 50.16 52.10 51.56 50.88 45.40 43.44 45.45 48.23 46.32 44.59 44.88 42.47 42.44 40.61 38.76 33.80 32.25 39.15 48.27 48.55 48.96 49.14 49.43 49.99 50.69 50.88
45.98 44.28 55.15 53.70 44.17 43.58 40.31 47.16 51.07 51.70 53.62 53.04 51.58 50.34 49.16 49.93 48.28 47.19 47.06 49.43 52.86 51.75 45.84 45.94 42.27 39.97 44.70 49.33 49.99 46.66 43.70 41.11 36.23 36.32 37.17 36.52 39.46 50.14 50.32 50.18 50.47 49.64 51.16 51.29 50.99
46.65 47.00 54.73 52.27 40.00 40.88 46.54 51.43 51.78 50.40 50.89 51.05 50.33 51.12 51.62 48.22 46.41 49.57 48.99 52.25 50.53 48.77 43.86 45.34 40.33 35.85 40.39 44.31 47.70 44.99 45.51 43.98 41.15 38.40 36.67 34.71 39.41 51.17 51.12 51.23 50.27 50.26 50.63 51.25 51.29
44.97 43.83 47.97 47.10 44.84 42.06 44.15 47.29 47.25 52.16 51.72 52.84 51.58 51.11 48.63 46.65 47.87 47.49 47.61 51.47 50.87 49.77 54.68 50.55 41.44 39.63 36.44 40.94 44.19 43.44 45.95 45.21 40.37 35.75 36.84 39.36 42.71 46.55 47.58 47.86 48.95 49.26 49.84 49.73 49.84
45.02 43.44 47.72 41.12 42.57 42.79 42.92 47.15 46.99 47.56 50.02 50.76 48.33 49.05 48.35 44.79 47.19 47.33 47.98 48.24 51.62 53.10 51.35 47.16 41.79 43.59 44.81 47.33 47.37 46.46 45.76 45.32 43.18 40.85 39.23 42.43 42.79 43.78 45.76 47.24 47.68 48.29 49.02 48.58 48.30
42.77 44.66 46.75 46.78 48.23 44.99 43.29 44.25 47.91 49.44 48.09 47.99 47.32 51.58 50.40 48.04 48.62 46.02 48.66 47.55 47.00 49.52 46.99 45.90 41.66 43.65 42.03 47.49 47.04 45.07 46.81 46.42 45.94 45.90 45.36 44.70 42.47 46.32 47.66 47.84 46.13 45.39 46.06 45.90 46.69
47.36 49.23 46.99 44.87 45.91 44.30 43.73 46.07 48.75 48.68 52.14 53.60 51.11 49.85 49.10 50.03 51.01 49.93 49.65 48.57 47.60 45.96 44.96 44.22 41.95 40.51 37.96 44.90 44.68 40.13 43.91 45.83 45.38 45.87 44.30 39.82 41.88 44.32 43.76 45.07 43.57 44.10 45.34 45.71 47.08
MSLP
1019.66 1019.94 1019.60 1019.25 1018.66 1018.06 1017.53 1017.22 1016.70 1016.08 1015.49 1015.09 1014.69 1014.23 1013.57 1013.06 1012.25 1011.88 1010.69 1008.75 1008.57 1008.36 1008.35 1008.08 1007.90 1008.09 1008.23 1008.47 1008.17 1008.52 1009.76 1010.12 1009.13 1007.74 1006.18 1004.36 1003.48 1002.27 1002.29 1002.87 1003.32 1003.69 1003.41 1003.92 1004.51
1020.16 1020.21 1019.84 1019.07 1018.37 1017.80 1017.31 1017.04 1016.44 1015.63 1015.24 1014.79 1014.42 1013.97 1013.40 1013.05 1012.45 1010.81 1008.29 1008.12 1008.18 1008.20 1008.23 1008.27 1008.37 1008.58 1008.67 1008.18 1008.04 1008.50 1009.46 1008.61 1007.35 1006.44 1005.79 1004.30 1003.52 1002.92 1002.30 1002.83 1002.92 1003.12 1003.37 1004.05 1004.91
1020.66 1020.14 1019.58 1018.70 1018.07 1017.50 1017.19 1016.71 1016.05 1015.43 1014.92 1014.55 1014.22 1013.72 1013.20 1012.99 1012.00 1009.19 1007.93 1007.98 1007.94 1008.03 1008.28 1008.41 1008.59 1008.81 1008.66 1008.07 1007.65 1007.95 1008.26 1007.18 1006.10 1005.45 1004.92 1004.14 1003.46 1003.15 1002.82 1002.48 1002.61 1003.32 1003.68 1004.18 1004.93
1020.57 1019.99 1019.12 1018.37 1017.89 1017.31 1016.87 1016.34 1015.61 1015.26 1014.65 1014.40 1013.98 1013.41 1012.98 1012.72 1010.96 1008.12 1007.76 1007.86 1007.93 1008.21 1008.28 1008.32 1008.46 1008.66 1008.56 1008.22 1007.43 1007.33 1006.44 1006.35 1005.35 1004.67 1004.39 1004.04 1003.62 1003.22 1003.08 1002.72 1002.20 1002.88 1003.06 1004.05 1004.88
1020.34 1019.69 1019.02 1018.14 1017.63 1017.20 1016.61 1015.73 1015.35 1014.84 1014.48 1014.14 1013.64 1013.19 1012.83 1011.73 1009.42 1007.43 1007.71 1007.95 1008.24 1008.10 1008.10 1008.47 1008.66 1008.50 1008.22 1007.85 1007.25 1006.81 1006.13 1005.21 1004.76 1004.52 1004.27 1004.09 1003.71 1003.74 1003.27 1002.55 1002.58 1002.68 1002.92 1003.88 1004.63
1019.85 1019.68 1018.86 1017.66 1017.57 1016.96 1016.09 1015.32 1014.93 1014.35 1014.14 1013.85 1013.36 1013.21 1012.51 1010.47 1007.48 1007.32 1007.60 1008.05 1008.12 1008.10 1007.88 1008.13 1007.91 1007.58 1007.62 1007.51 1007.35 1006.67 1006.20 1005.48 1004.61 1004.32 1004.33 1004.37 1004.19 1004.02 1003.33 1004.27 1004.40 1004.30 1005.30 1005.02 1005.53
1019.93 1019.26 1018.24 1017.98 1017.51 1016.30 1015.40 1014.77 1014.37 1013.85 1013.69 1013.42 1013.10 1012.90 1011.78 1008.86 1007.10 1007.33 1007.46 1007.33 1007.24 1007.47 1007.61 1007.08 1007.06 1007.29 1007.49 1007.38 1006.79 1006.40 1006.48 1005.76 1004.44 1004.38 1004.57 1004.74 1006.19 1006.86 1005.80 1005.66 1005.73 1005.76 1006.16 1005.89 1006.66
1020.06 1019.37 1018.90 1017.85 1016.60 1015.54 1014.83 1014.14 1013.65 1013.07 1013.07 1012.91 1012.83 1012.46 1010.51 1007.41 1007.14 1007.47 1007.29 1006.99 1006.73 1006.86 1007.05 1006.37 1006.43 1006.84 1007.31 1007.29 1006.93 1006.85 1006.65 1006.24 1004.83 1004.79 1005.29 1005.37 1008.12 1008.15 1007.99 1006.82 1007.82 1007.98 1007.65 1007.35 1007.53
1019.63 1018.81 1017.73 1016.93 1015.99 1015.41 1014.28 1013.56 1012.48 1012.19 1012.49 1012.63 1012.65 1011.81 1009.55 1007.18 1007.05 1006.33 1006.59 1006.77 1006.40 1006.16 1006.34 1006.22 1006.51 1007.15 1007.33 1007.93 1007.95 1007.62 1007.08 1006.54 1005.87 1005.61 1006.06 1006.41 1009.19 1009.59 1009.61 1008.26 1008.95 1009.01 1008.99 1008.23 1007.80
1019.39 1018.39 1017.66 1016.76 1016.31 1015.36 1013.67 1012.32 1011.83 1012.03 1012.56 1012.35 1011.70 1011.44 1008.83 1007.24 1006.40 1006.05 1005.78 1006.06 1006.16 1006.30 1006.62 1006.75 1007.42 1007.92 1008.28 1008.41 1008.47 1007.60 1007.18 1006.48 1006.62 1008.15 1007.79 1008.89 1010.32 1010.14 1009.66 1008.94 1009.66 1009.85 1009.88 1009.57 1008.97
1019.10 1018.30 1017.46 1016.73 1015.99 1015.09 1014.03 1012.51 1012.73 1012.26 1011.77 1011.18 1010.67 1010.06 1008.33 1006.66 1005.89 1005.89 1005.76 1005.86 1006.13 1006.65 1007.19 1007.29 1008.17 1008.25 1007.74 1007.54 1007.01 1006.84 1006.69 1006.89 1006.97 1007.76 1008.83 1010.45 1010.63 1010.74 1010.57 1009.57 1009.23 1010.28 1011.34 1011.12 1010.58
1019.34 1018.52 1017.51 1016.82 1015.59 1014.82 1014.82 1014.22 1013.51 1013.00 1011.89 1010.02 1009.34 1009.14 1007.86 1006.97 1006.29 1005.83 1005.70 1006.28 1006.54 1006.89 1007.20 1007.77 1007.63 1006.68 1006.63 1006.21 1006.39 1006.28 1006.31 1006.45 1007.13 1007.93 1008.98 1010.73 1011.49 1011.13 1011.08 1011.20 1009.45 1011.38 1012.85 1011.83 1010.73
1019.12 1018.53 1017.75 1016.68 1015.14 1014.67 1014.77 1013.98 1012.97 1012.22 1012.13 1009.46 1008.21 1007.53 1006.85 1006.50 1006.29 1005.73 1005.81 1006.05 1006.46 1006.80 1006.85 1007.08 1006.15 1005.60 1005.99 1005.94 1006.00 1005.99 1006.12 1006.38 1007.04 1008.14 1009.76 1010.18 1012.00 1012.19 1011.93 1011.95 1012.74 1013.16 1014.02 1012.70 1011.86
1019.29 1018.93 1018.13 1016.86 1015.35 1015.94 1014.49 1013.33 1012.87 1012.41 1011.92 1008.93 1007.37 1006.21 1006.23 1006.21 1006.05 1005.37 1005.48 1005.92 1006.36 1006.61 1006.27 1006.09 1005.31 1005.36 1005.54 1005.69 1005.86 1005.90 1005.68 1006.19 1007.03 1008.42 1010.01 1010.63 1013.73 1013.46 1013.34 1013.15 1013.52 1013.33 1013.87 1012.62 1012.73
1019.38 1019.01 1018.55 1018.26 1017.66 1016.40 1014.15 1013.58 1012.81 1012.44 1010.91 1007.86 1006.52 1005.33 1005.79 1006.32 1005.98 1005.43 1005.20 1005.72 1006.33 1006.41 1006.80 1006.06 1005.46 1005.16 1005.35 1005.38 1005.56 1005.81 1005.74 1006.46 1007.18 1008.93 1009.96 1011.62 1013.01 1014.46 1013.80 1014.12 1014.20 1014.45 1013.68 1012.95 1012.90
1019.32 1019.04 1018.82 1018.14 1017.81 1015.21 1014.29 1013.56 1012.94 1012.44 1009.35 1007.34 1006.02 1005.72 1006.18 1006.07 1005.98 1005.61 1005.65 1005.98 1006.24 1006.57 1006.38 1005.93 1005.24 1004.99 1004.90 1004.93 1005.50 1005.80 1006.47 1007.59 1008.70 1009.87 1011.60 1012.28 1012.96 1015.27 1014.56 1015.02 1015.66 1014.69 1013.86 1013.82 1012.82
1019.05 1018.52 1018.80 1018.37 1016.21 1014.64 1014.46 1013.95 1013.34 1011.27 1007.88 1006.90 1006.21 1006.00 1006.19 1006.22 1006.11 1006.02 1006.45 1006.93 1007.27 1007.50 1007.50 1006.47 1005.62 1005.10 1004.95 1005.41 1005.91 1006.67 1008.00 1009.58 1011.02 1011.92 1013.04 1012.80 1013.63 1015.27 1014.85 1014.01 1014.27 1014.16 1014.28 1014.06 1013.48
1018.66 1017.91 1017.09 1016.34 1015.03 1015.20 1014.83 1014.29 1012.54 1009.70 1007.72 1006.25 1005.98 1006.24 1006.50 1006.28 1006.32 1006.50 1007.09 1007.78 1007.87 1007.85 1008.23 1007.95 1006.76 1005.92 1005.38 1005.82 1006.64 1007.50 1008.89 1010.65 1012.09 1013.30 1013.53 1013.21 1014.68 1015.11 1014.73 1014.47 1014.25 1014.16 1013.86 1013.85 1014.16
1018.44 1017.30 1016.59 1014.28 1014.60 1015.41 1015.00 1014.12 1011.61 1009.06 1007.55 1006.41 1006.17 1006.63 1006.67 1006.33 1006.56 1007.27 1007.93 1008.47 1008.59 1008.49 1008.72 1008.73 1007.86 1006.79 1006.25 1005.97 1006.80 1007.94 1009.12 1010.20 1011.90 1013.39 1014.37 1015.00 1015.10 1015.08 1014.85 1014.82 1014.16 1014.47 1014.32 1014.96 1015.08
1019.30 1018.14 1015.90 1013.50 1014.03 1014.89 1015.08 1013.57 1010.73 1008.40 1007.22 1006.50 1006.80 1006.57 1006.52 1006.44 1006.94 1007.67 1008.63 1009.20 1009.10 1009.05 1008.78 1009.75 1009.38 1008.58 1007.51 1007.01 1007.68 1008.26 1009.38 1010.73 1012.64 1014.62 1015.61 1015.60 1015.57 1015.26 1015.32 1015.10 1014.79 1014.91 1015.16 1015.34 1015.40
1019.69 1017.82 1014.19 1013.38 1013.92 1014.87 1014.95 1012.88 1010.15 1007.90 1007.25 1006.89 1006.94 1006.95 1006.95 1006.85 1007.61 1008.66 1009.69 1009.78 1009.62 1009.74 1009.87 1010.55 1010.82 1010.33 1009.22 1009.37 1009.26 1009.60 1010.30 1011.87 1013.52 1014.99 1016.04 1016.52 1016.42 1015.48 1015.49 1015.45 1015.42 1015.50 1015.44 1015.66 1015.95
1019.37 1017.37 1013.83 1013.54 1014.69 1014.90 1014.18 1011.87 1009.63 1008.12 1007.15 1006.95 1006.91 1007.26 1007.38 1007.64 1008.66 1009.40 1010.32 1010.37 1010.25 1010.44 1011.22 1011.85 1012.44 1012.27 1011.47 1010.23 1009.84 1010.29 1011.13 1012.21 1014.21 1015.34 1015.75 1016.22 1017.09 1016.28 1016.13 1015.79 1015.74 1016.18 1016.28 1016.29 1016.25
1019.39 1017.18 1014.25 1014.09 1015.06 1014.79 1013.37 1011.58 1009.74 1008.44 1007.73 1007.36 1007.35 1007.62 1007.90 1008.54 1009.53 1010.02 1010.58 1011.02 1010.76 1011.24 1012.06 1012.53 1013.63 1013.66 1012.61 1011.62 1010.69 1011.14 1011.50 1012.25 1013.56 1014.68 1015.85 1016.78 1017.59 1017.03 1016.77 1016.87 1016.91 1016.89 1016.94 1016.96 1016.74
1019.86 1017.92 1015.87 1015.45 1015.13 1014.71 1013.58 1011.77 1009.80 1008.50 1008.05 1007.85 1007.93 1007.89 1008.47 1009.17 1009.52 1010.61 1011.07 1011.42 1011.47 1011.90 1012.46 1012.92 1014.47 1014.94 1014.85 1014.11 1013.26 1012.55 1012.20 1012.53 1013.50 1015.15 1016.56 1017.34 1017.97 1017.92 1017.74 1017.76 1017.74 1017.75 1017.57 1017.33 1016.99
1019.72 1018.07 1016.62 1016.02 1015.25 1014.39 1013.65 1012.14 1010.52 1009.20 1008.58 1008.26 1008.47 1008.89 1009.19 1010.20 1010.75 1011.49 1011.59 1011.90 1012.29 1012.68 1013.27 1014.30 1015.46 1015.41 1014.90 1014.32 1013.75 1013.58 1013.46 1013.69 1014.47 1015.25 1016.61 1018.40 1018.80 1019.10 1018.81 1018.73 1018.56 1018.37 1017.98 1017.64 1017.42
1019.45 1018.19 1016.54 1015.72 1014.80 1014.23 1013.71 1012.16 1011.01 1009.84 1009.25 1009.13 1009.67 1009.85 1009.72 1011.02 1011.27 1012.05 1012.32 1012.79 1013.23 1013.76 1014.45 1015.28 1016.03 1016.08 1015.55 1014.86 1014.80 1014.86 1014.85 1014.93 1015.69 1016.74 1017.91 1018.60 1019.05 1019.31 1019.29 1019.22 1019.07 1018.76 1018.31 1017.98 1017.62
1018.61 1017.72 1017.04 1015.96 1014.98 1014.10 1013.15 1012.08 1011.27 1010.83 1010.18 1009.89 1010.36 1010.77 1010.95 1011.45 1011.65 1012.23 1012.52 1012.93 1013.35 1014.29 1015.39 1016.18 1016.92 1017.20 1016.65 1015.57 1015.30 1015.92 1016.57 1016.75 1017.56 1018.01 1018.56 1019.22 1019.95 1019.78 1019.70 1019.44 1019.22 1018.91 1018.51 1018.16 1017.74
Wind_Speed
16 16 15 15 15 16 17 18 18 18 18 19 18 17 17 17 17 2 4 10 4 2 1 5 5 6 2 4 3 5 5 4 7 3 9 7 6 6 0 8 3 9 6 9 12
16 16 15 16 17 17 18 19 18 18 19 17 17 17 15 13 3 4 9 6 4 1 2 2 6 8 5 4 3 5 3 7 7 4 6 7 6 5 7 3 2 4 8 17 12
14 16 16 17 19 18 18 20 18 19 19 17 17 15 12 8 4 6 5 7 7 3 1 3 3 2 3 1 5 4 7 7 8 10 7 3 10 5 5 6 5 9 13 16 14
15 17 18 18 20 19 19 19 19 21 19 17 15 14 11 3 1 3 8 8 5 2 2 3 5 6 3 4 3 4 8 6 7 3 4 4 3 8 2 5 6 10 20 17 14
16 18 19 18 20 20 19 19 20 20 18 16 13 11 3 3 7 4 6 4 2 1 2 2 3 3 2 4 7 4 4 8 8 9 5 6 6 2 10 11 13 9 17 19 19
15 18 19 20 21 21 20 19 20 19 15 14 10 7 1 3 4 7 8 4 5 3 3 6 7 8 2 4 0 3 5 10 8 10 5 4 5 3 10 16 20 31 26 12 12
15 19 20 20 22 21 21 21 22 18 15 12 7 4 1 11 2 8 9 7 5 5 3 5 3 7 4 10 3 6 7 9 11 6 6 4 20 21 14 17 21 21 20 25 22
15 17 18 21 23 24 24 24 23 19 13 8 4 3 6 6 2 4 5 7 6 9 7 7 2 3 3 3 9 5 3 2 9 5 8 15 9 24 15 24 19 18 14 14 12
16 18 22 24 25 26 26 27 23 11 4 5 2 0 9 11 4 8 8 6 6 7 5 5 3 1 6 3 7 6 4 4 9 11 6 10 2 7 9 22 19 18 16 14 11
18 20 22 25 25 25 29 24 9 3 2 5 3 3 4 3 4 2 5 4 3 2 5 1 5 3 5 6 4 7 6 5 4 6 15 12 6 4 7 18 16 18 19 15 15
20 21 23 26 27 24 17 6 8 5 3 4 3 4 9 3 1 2 3 2 3 4 2 3 4 5 12 8 7 4 3 4 4 10 12 5 7 8 8 12 16 17 21 16 9
18 21 24 27 28 25 1 5 2 7 9 6 11 8 13 7 3 5 5 1 1 5 1 5 5 13 9 4 5 8 2 6 3 10 14 6 5 7 9 4 14 15 17 12 16
18 20 23 28 32 5 3 4 8 5 1 9 6 5 6 5 3 6 7 1 4 6 5 7 7 8 2 7 5 2 3 3 1 8 10 10 9 10 5 9 17 5 8 4 16
16 18 21 32 6 7 6 12 12 1 4 5 3 6 4 4 3 4 7 3 4 4 4 3 3 2 6 3 2 3 3 3 4 5 4 2 1 6 8 7 4 8 4 13 13
15 16 17 14 5 5 6 11 12 5 3 4 3 3 5 6 1 2 1 3 4 8 2 5 0 4 5 3 3 8 4 5 2 5 5 9 7 4 4 8 14 6 9 12 13
15 16 16 2 3 9 9 12 4 4 2 3 5 5 4 4 3 3 1 3 4 4 2 5 4 2 4 4 5 6 4 8 6 4 6 6 8 6 4 4 10 12 7 10 14
17 18 10 4 6 4 7 4 5 2 0 5 5 5 5 4 3 4 2 2 3 4 5 7 2 2 2 6 7 10 8 5 7 7 3 4 10 5 7 6 7 6 6 5 8
19 23 6 7 5 4 4 5 1 4 6 3 5 6 6 4 4 1 4 2 3 4 3 4 6 1 1 3 3 3 6 6 1 2 3 6 5 3 5 7 6 6 7 7 8
18 4 4 6 7 3 5 3 5 4 4 2 5 4 4 5 6 6 4 3 5 4 4 6 5 6 7 0 6 5 6 1 6 3 5 1 3 2 4 7 7 6 8 6 6
4 5 5 5 8 4 5 6 4 4 5 5 5 1 6 5 4 5 3 5 4 7 3 4 3 4 8 9 7 8 2 8 6 3 2 3 2 4 4 3 4 6 6 6 5
3 4 5 5 5 5 3 7 6 4 6 4 4 3 2 5 5 5 4 4 7 6 9 3 4 7 5 6 3 6 6 7 6 4 4 0 4 2 3 1 5 4 6 8 8
2 2 3 4 3 1 3 5 6 3 4 3 3 3 4 6 6 6 5 3 3 4 4 3 5 1 2 3 3 4 3 5 6 5 1 5 3 4 3 8 8 8 11 10 8
2 4 3 6 2 3 6 7 5 6 4 4 3 4 4 4 7 7 5 3 7 5 3 4 4 4 10 9 8 5 4 3 4 3 2 6 3 6 3 8 8 10 8 7 8
1 3 4 4 1 2 3 6 3 3 3 2 3 5 6 6 6 5 5 2 3 4 5 6 4 6 5 6 5 7 10 5 5 5 2 3 5 8 9 8 8 8 7 6 6
1 5 4 3 4 5 2 4 5 2 4 5 6 5 0 6 6 6 5 4 7 6 5 6 3 4 3 5 5 7 8 10 11 2 7 5 10 3 4 6 5 5 7 8 8
2 1 4 4 4 6 5 3 3 5 1 3 8 8 11 6 6 4 6 3 2 8 5 5 2 6 4 3 11 9 9 11 10 11 12 9 8 4 4 3 5 4 5 5 5
3 4 4 5 5 3 5 4 3 6 5 5 13 8 12 6 7 8 7 4 5 6 1 3 3 4 5 7 3 8 9 11 11 12 3 5 3 4 6 4 4 6 7 7 7
Wind_Direction
359 341 338 331 330 329 328 320 319 325 327 318 321 320 323 322 312 169 260 217 182 262 259 299 331 336 86 266 198 125 60 300 254 277 274 297 346 333 105 118 185 194 165 150 168
347 332 331 332 332 329 326 317 319 329 322 319 323 322 323 326 301 264 249 179 204 269 260 323 315 20 322 277 334 95 111 234 205 241 242 300 319 319 13 54 25 81 72 142 137
335 332 332 335 333 327 320 317 322 326 322 321 323 322 317 318 320 259 160 190 207 205 161 356 322 174 243 355 231 197 216 232 270 236 222 306 323 347 2 352 147 168 148 154 142
336 333 335 335 329 323 319 315 325 320 323 321 322 318 310 251 147 267 170 198 222 292 27 344 23 0 292 285 269 210 249 196 273 251 314 298 284 331 277 265 304 165 165 163 157
333 334 330 332 325 317 313 321 316 315 315 319 322 316 289 355 252 201 159 174 257 265 220 88 326 226 252 283 327 190 299 297 274 299 307 313 290 268 299 304 358 359 173 166 175
341 325 325 335 319 312 315 318 310 309 310 312 316 312 310 307 236 167 164 153 245 185 246 143 229 247 243 301 166 279 290 281 300 299 297 211 289 85 286 53 70 72 67 74 189
330 323 333 325 312 316 319 314 305 302 303 302 300 279 13 238 236 189 167 205 189 198 258 241 199 43 348 327 340 320 343 327 294 284 278 92 27 17 45 65 52 61 65 65 87
322 324 322 319 322 324 318 311 302 299 292 274 258 255 255 259 189 195 192 294 254 233 212 266 319 348 145 298 340 313 30 350 280 327 22 90 25 26 42 54 34 19 30 66 88
328 328 333 329 329 322 315 309 306 303 208 179 183 153 275 313 222 235 179 230 265 250 279 279 43 261 359 66 351 354 253 259 324 357 81 78 41 354 53 56 38 18 6 349 13
329 335 333 330 324 321 320 310 293 359 158 196 256 341 282 248 220 230 226 237 276 318 331 91 52 20 12 62 273 286 3 348 95 12 69 86 75 320 19 57 44 18 6 338 42
331 335 335 329 321 325 338 2 13 345 41 209 205 259 281 282 194 247 262 308 357 21 243 309 57 252 263 212 216 270 341 81 105 154 69 56 49 325 8 43 49 18 357 327 351
334 334 335 327 320 325 283 32 289 231 313 252 252 244 259 262 318 278 131 169 147 250 31 20 225 243 241 314 327 331 81 332 89 120 94 84 22 340 27 26 72 14 330 313 33
332 335 334 326 319 350 299 327 323 58 274 293 224 206 228 138 241 259 150 209 249 282 290 179 227 227 318 0 47 25 65 355 295 72 80 98 12 355 344 55 81 244 289 39 76
331 332 338 330 34 328 311 330 332 46 41 274 211 256 157 161 278 208 203 164 332 279 290 213 294 53 31 14 117 11 269 329 319 69 162 99 175 323 341 358 62 94 247 88 85
324 329 339 333 291 312 271 329 319 60 74 168 186 211 147 145 215 263 204 38 257 265 358 259 347 48 36 271 345 244 322 312 304 115 102 6 83 312 2 5 21 342 76 79 85
318 321 341 321 268 244 323 306 52 46 174 208 148 170 126 236 258 200 165 45 259 301 307 239 273 121 213 306 320 273 349 30 39 62 56 253 120 330 329 93 85 276 86 82 80
314 312 315 282 251 346 326 24 46 138 312 163 170 164 187 235 209 163 105 51 339 36 351 328 234 284 66 27 358 52 53 358 8 12 181 260 57 219 286 111 177 156 120 109 102
317 309 250 212 237 346 10 50 132 264 262 221 141 159 192 206 226 190 72 58 333 82 95 6 32 166 357 136 202 25 113 141 244 266 282 358 134 222 216 337 283 110 115 86 82
313 322 279 258 202 156 65 78 226 289 302 354 123 149 236 209 118 104 98 53 40 26 88 24 334 331 340 291 92 312 35 239 107 11 73 320 29 68 255 289 43 49 78 105 102
334 324 267 261 133 73 71 242 258 309 358 29 56 358 171 187 116 96 65 334 18 30 104 331 8 16 311 44 15 86 272 26 13 65 24 337 162 243 177 265 40 49 80 86 111
342 338 264 118 80 52 181 244 280 333 51 54 23 329 309 206 93 76 37 354 14 360 62 33 75 303 33 15 309 3 33 56 107 119 150 157 314 282 190 246 86 59 30 66 67
10 345 290 68 37 236 219 225 294 299 5 333 54 20 12 75 57 86 82 55 356 341 54 16 132 307 241 245 91 115 118 109 111 283 157 127 293 317 56 35 47 44 43 60 57
318 270 322 89 199 296 290 282 263 4 356 342 13 61 32 115 91 117 96 329 48 58 62 347 13 18 353 349 7 33 341 120 110 79 205 110 218 18 67 45 34 70 60 50 36
340 325 326 42 225 202 309 289 309 348 348 46 33 62 56 44 71 141 125 98 53 85 100 83 75 134 170 236 247 326 325 13 106 95 112 44 102 4 9 41 39 43 44 36 33
177 252 210 246 275 212 9 279 308 331 353 25 10 49 70 56 54 51 61 102 34 8 42 84 56 15 251 276 352 14 72 67 63 40 91 118 94 21 3 80 53 30 21 17 6
189 254 341 293 293 163 176 273 328 291 66 358 68 55 79 82 111 83 110 72 106 21 48 6 346 30 316 30 60 46 30 58 48 73 100 107 64 357 49 106 55 21 5 356 334
273 295 127 280 325 104 221 225 273 359 5 33 122 84 88 142 139 146 144 117 122 124 86 74 78 45 294 337 31 37 349 84 72 40 94 68 7 345 32 57 61 11 350 327 311